Avalon, Victoria

12:19 AM AEST on August 30, 2016 (GMT +1000)
Avalon

Weather History for YMAV - May, 2013

Change the Weather History Date:

Friday, May 24, 2013

  Actual Average (YMML) Record (YMML)
Temperature  
Mean Temperature 50 °F -  
Max Temperature 64 °F 58 °F 68 °F (2004)
Min Temperature 36 °F 45 °F 37 °F (2008)
Degree Days  
Heating Degree Days 15    
Moisture  
Dew Point 43 °F    
Average Humidity 80    
Maximum Humidity 100    
Minimum Humidity 42    
Precipitation  
Precipitation 0.00 in - - ()
Sea Level Pressure  
Sea Level Pressure 30.25 in    
Wind  
Wind Speed 7 mph ()    
Max Wind Speed 12 mph    
Max Gust Speed -    
Visibility 6.2 miles    
Events      
Averages and records for this station are not official NWS values.
T = Trace of Precipitation, MM = Missing Value Source: Averaged Metar Reports

Daily Weather History Graph

Daily Weather History Graph

Search for Another Location

Airport or City:

Trip Planner

Search our weather history database for the weather conditions in past years. The results will help you decide how hot, cold, wet, or windy it might be!

Date:

Astronomy

May. 24, 2013 Rise Set
Actual Time 7:23 AM AEST 5:14 PM AEST
Civil Twilight 6:54 AM AEST 5:43 PM AEST
Nautical Twilight 6:22 AM AEST 6:15 PM AEST
Astronomical Twilight 5:50 AM AEST 6:47 PM AEST
Moon 4:30 PM AEST (5/24) 5:53 AM AEST (5/24)
Length of Visible Light 10h 48m
Length of Day
9h 51m
Waxing Gibbous, 98% of the Moon is Illuminated
May 24
Waxing Gibbous
May 25
Full
Jun 1
Last Quarter
Jun 9
New
Jun 17
First Quarter

Hourly Weather History & Observations

Time (AEST) Temp. Windchill Dew Point Humidity Pressure Visibility Wind Dir Wind Speed Gust Speed Precip Events Conditions
12:00 AM 41 °F - 40 °F 92% 30.24 in - WNW 4.6 mph - -  
12:00 AM 41.0 °F 38.0 °F 39.2 °F 93% 30.24 in 6.2 mi WNW 4.6 mph - N/A   Unknown
12:30 AM 41.0 °F 36.4 °F 41.0 °F 100% 30.24 in 6.2 mi WNW 6.9 mph - N/A   Unknown
1:00 AM 41.0 °F 36.4 °F 39.2 °F 93% 30.24 in 6.2 mi WNW 6.9 mph - N/A   Unknown
1:30 AM 41.0 °F 36.4 °F 41.0 °F 100% 30.21 in 6.2 mi NW 6.9 mph - N/A   Unknown
2:00 AM 41.0 °F 37.1 °F 39.2 °F 93% 30.24 in 6.2 mi WNW 5.8 mph - N/A   Unknown
2:30 AM 41.0 °F 36.4 °F 39.2 °F 93% 30.24 in 6.2 mi WNW 6.9 mph - N/A   Unknown
3:00 AM 39 °F - 38 °F 95% 30.25 in - NW 6.9 mph - -  
3:00 AM 39.2 °F 34.2 °F 37.4 °F 93% 30.24 in 6.2 mi NW 6.9 mph - N/A   Unknown
3:30 AM 41.0 °F 35.8 °F 39.2 °F 93% 30.24 in 6.2 mi WNW 8.1 mph - N/A   Unknown
4:00 AM 39.2 °F 33.6 °F 37.4 °F 93% 30.21 in 6.2 mi WNW 8.1 mph - N/A   Unknown
4:30 AM 39.2 °F 34.2 °F 39.2 °F 100% 30.21 in 6.2 mi WNW 6.9 mph - N/A   Unknown
5:00 AM 39.2 °F 33.6 °F 39.2 °F 100% 30.24 in 6.2 mi WNW 8.1 mph - N/A   Unknown
5:30 AM 39.2 °F 33.6 °F 39.2 °F 100% 30.24 in 6.2 mi WNW 8.1 mph - N/A   Unknown
6:00 AM 39.2 °F 33.6 °F 39.2 °F 100% 30.24 in 6.2 mi WNW 8.1 mph - N/A   Unknown
6:30 AM 37.4 °F 31.4 °F 37.4 °F 100% 30.24 in 6.2 mi NW 8.1 mph - N/A   Unknown
7:00 AM 39.2 °F 33.6 °F 39.2 °F 100% 30.24 in 6.2 mi WNW 8.1 mph - N/A   Unknown
7:30 AM 37.4 °F 31.4 °F 35.6 °F 93% 30.27 in 6.2 mi WNW 8.1 mph - N/A   Unknown
8:00 AM 41.0 °F 36.4 °F 41.0 °F 100% 30.27 in 6.2 mi WNW 6.9 mph - N/A   Unknown
8:30 AM 44.6 °F 39.7 °F 42.8 °F 93% 30.27 in 6.2 mi WNW 9.2 mph - N/A   Unknown
9:00 AM 46 °F - 45 °F 95% 30.30 in - NW 9.2 mph - -  
9:00 AM 46.4 °F 41.9 °F 44.6 °F 93% 30.27 in 6.2 mi NW 9.2 mph - N/A   Unknown
9:30 AM 48.2 °F - 46.4 °F 93% 30.27 in 6.2 mi WNW 10.4 mph - N/A   Unknown
10:00 AM 51.8 °F - 46.4 °F 82% 30.27 in 6.2 mi NW 9.2 mph - N/A   Unknown
10:30 AM 53.6 °F - 46.4 °F 77% 30.30 in 6.2 mi West 11.5 mph - N/A   Unknown
11:00 AM 55.4 °F - 48.2 °F 77% 30.27 in 6.2 mi West 10.4 mph - N/A   Unknown
11:30 AM 59.0 °F - 46.4 °F 63% 30.27 in 6.2 mi West 9.2 mph - N/A   Unknown
12:00 PM 60 °F - 44 °F 45% 30.27 in - West 9.2 mph - -  
12:00 PM 59.0 °F - 44.6 °F 59% 30.27 in 6.2 mi West 9.2 mph - N/A   Unknown
12:30 PM 59.0 °F - 42.8 °F 55% 30.24 in 6.2 mi West 9.2 mph - N/A   Unknown
1:00 PM 60.8 °F - 42.8 °F 52% 30.24 in 6.2 mi West 6.9 mph - N/A   Unknown
1:30 PM 62.6 °F - 39.2 °F 42% 30.21 in 6.2 mi West 6.9 mph - N/A   Unknown
2:00 PM 64.4 °F - 41.0 °F 42% 30.21 in 6.2 mi West 8.1 mph - N/A   Unknown
2:30 PM 62.6 °F - 44.6 °F 52% 30.21 in 6.2 mi WSW 9.2 mph - N/A   Mostly Cloudy
3:00 PM 62 °F - 45 °F 43% 30.23 in - WSW 10.4 mph - -  
3:00 PM 62.6 °F - 44.6 °F 52% 30.21 in 6.2 mi WSW 10.4 mph - N/A   Scattered Clouds
3:30 PM 62.6 °F - 44.6 °F 52% 30.21 in 6.2 mi West 6.9 mph - N/A   Scattered Clouds
4:00 PM 62.6 °F - 44.6 °F 52% 30.21 in 6.2 mi West 8.1 mph - N/A   Scattered Clouds
4:30 PM 60.8 °F - 44.6 °F 55% 30.21 in 6.2 mi West 6.9 mph - N/A   Unknown
5:00 PM 59.0 °F - 46.4 °F 63% 30.24 in 6.2 mi WSW 9.2 mph - N/A   Scattered Clouds
5:30 PM 55.4 °F - 46.4 °F 72% 30.24 in 6.2 mi West 6.9 mph - N/A   Scattered Clouds
6:00 PM 56 °F - 46 °F 60% 30.26 in - West 6.9 mph - -  
6:00 PM 55.4 °F - 46.4 °F 72% 30.24 in 6.2 mi West 6.9 mph - N/A   Mostly Cloudy
6:30 PM 55.4 °F - 46.4 °F 72% 30.24 in 6.2 mi West 6.9 mph - N/A   Overcast
7:00 PM 57.2 °F - 48.2 °F 72% 30.27 in 6.2 mi West 8.1 mph - N/A   Overcast
7:30 PM 55.4 °F - 46.4 °F 72% 30.27 in 6.2 mi WSW 6.9 mph - N/A   Scattered Clouds
8:00 PM 51.8 °F - 46.4 °F 82% 30.27 in 6.2 mi NW 6.9 mph - N/A   Unknown
8:30 PM 48.2 °F - 44.6 °F 87% 30.27 in 6.2 mi NW 8.1 mph - N/A   Unknown
9:00 PM 48 °F - 45 °F 87% 30.27 in - NW 8.1 mph - -  
9:00 PM 48.2 °F - 44.6 °F 87% 30.27 in 6.2 mi NW 8.1 mph - N/A   Unknown
9:30 PM 48.2 °F - 46.4 °F 93% 30.27 in 6.2 mi NW 8.1 mph - N/A   Unknown
10:00 PM 48.2 °F - 46.4 °F 93% 30.27 in 6.2 mi WNW 9.2 mph - N/A   Unknown
10:30 PM 48.2 °F - 46.4 °F 93% 30.27 in 6.2 mi WNW 8.1 mph - N/A   Unknown
11:00 PM 46.4 °F 41.9 °F 44.6 °F 93% 30.27 in 6.2 mi WNW 9.2 mph - N/A   Unknown
11:30 PM 44.6 °F 40.7 °F 42.8 °F 93% 30.27 in 6.2 mi West 6.9 mph - N/A   Unknown